TimeAST,TemperatureF,Dew PointF,Humidity,Sea Level PressureIn,VisibilityMPH,Wind Direction,Wind SpeedMPH,Gust SpeedMPH,PrecipitationIn,Events,Conditions,WindDirDegrees,DateUTC
12:56 AM,75.9,72.0,87,30.03,10.0,Calm,Calm,-,N/A,,Scattered Clouds,0,2013-12-06 04:56:00
1:56 AM,75.9,72.0,87,30.01,10.0,Calm,Calm,-,N/A,,Scattered Clouds,0,2013-12-06 05:56:00
2:56 AM,75.9,71.1,85,30.00,10.0,Calm,Calm,-,N/A,,Scattered Clouds,0,2013-12-06 06:56:00
3:56 AM,75.9,72.0,87,30.00,10.0,Calm,Calm,-,N/A,,Scattered Clouds,0,2013-12-06 07:56:00
4:56 AM,75.0,71.1,87,30.00,10.0,Calm,Calm,-,N/A,,Scattered Clouds,0,2013-12-06 08:56:00
5:56 AM,75.0,71.1,87,30.00,10.0,Calm,Calm,-,N/A,,Scattered Clouds,0,2013-12-06 09:56:00
6:56 AM,75.9,71.1,85,30.00,10.0,WSW,3.5,-,N/A,,Scattered Clouds,240,2013-12-06 10:56:00
7:56 AM,79.0,72.0,79,30.03,10.0,WSW,3.5,-,N/A,,Scattered Clouds,250,2013-12-06 11:56:00
8:56 AM,81.0,69.1,67,30.06,10.0,WNW,3.5,-,N/A,,Scattered Clouds,290,2013-12-06 12:56:00
9:56 AM,82.9,71.1,67,30.07,10.0,NE,5.8,-,N/A,,Scattered Clouds,50,2013-12-06 13:56:00
10:56 AM,84.0,71.1,65,30.06,10.0,ENE,10.4,-,N/A,,Scattered Clouds,70,2013-12-06 14:56:00
11:56 AM,84.9,71.1,63,30.04,10.0,ENE,10.4,-,N/A,,Scattered Clouds,60,2013-12-06 15:56:00
12:56 PM,84.9,72.0,65,30.01,10.0,ENE,15.0,-,N/A,,Scattered Clouds,70,2013-12-06 16:56:00
1:56 PM,84.9,71.1,63,30.00,10.0,ENE,17.3,-,N/A,,Scattered Clouds,70,2013-12-06 17:56:00
2:56 PM,84.9,70.0,61,29.98,10.0,NE,15.0,-,N/A,,Scattered Clouds,50,2013-12-06 18:56:00
3:56 PM,84.0,69.1,61,29.99,10.0,ENE,17.3,-,N/A,,Scattered Clouds,60,2013-12-06 19:56:00
4:56 PM,82.9,69.1,63,30.00,9.0,ENE,15.0,-,N/A,,Scattered Clouds,60,2013-12-06 20:56:00
5:56 PM,82.0,69.1,65,30.01,10.0,ENE,11.5,-,N/A,,Scattered Clouds,70,2013-12-06 21:56:00
6:56 PM,81.0,71.1,72,30.02,10.0,East,18.4,26.5,N/A,,Scattered Clouds,80,2013-12-06 22:56:00
7:56 PM,79.0,68.0,69,30.03,10.0,ESE,4.6,-,N/A,,Partly Cloudy,110,2013-12-06 23:56:00
8:56 PM,80.1,70.0,71,30.04,10.0,East,8.1,-,N/A,,Scattered Clouds,90,2013-12-07 00:56:00
9:56 PM,80.1,70.0,71,30.06,10.0,East,8.1,-,N/A,,Scattered Clouds,80,2013-12-07 01:56:00
10:56 PM,80.1,70.0,71,30.05,10.0,East,5.8,-,N/A,,Scattered Clouds,80,2013-12-07 02:56:00
11:56 PM,80.1,69.1,69,30.04,10.0,East,9.2,-,0.00,,Scattered Clouds,80,2013-12-07 03:56:00